Regional Weather Roundup
Issued by NWS

Home | Current Version | Previous Version | Text Only | Print | Product List | Glossary Off
Versions: 1 2 3 4 5 6 7 8 9 10 11 12 13 14 15 16 17 18 19 20 21 22 23 24 25 26 27 28

000
ASUS45 KCYS 210310
RWRWY

WYOMING REGIONAL WEATHER ROUNDUP
NATIONAL WEATHER SERVICE CHEYENNE WY
800 PM MST FRI JAN 20 2017

NOTE:  "FAIR" INDICATES FEW OR NO CLOUDS BELOW 12,000 FEET
WITH NO SIGNIFICANT WEATHER AND/OR OBSTRUCTIONS TO VISIBILITY.

WYZ001-210400-
YELLOWSTONE NATIONAL PARK

CITY           SKY/WX    TMP DP  RH WIND       PRES   REMARKS
LK YELLOWSTONE   N/A      9   7  92 CALM      29.38F
W YELLOWSTONE  NOT AVBL

$$
WYZ002>013-054>058-071-098>099-210400-
NORTHERN WYOMING

CITY           SKY/WX    TMP DP  RH WIND       PRES   REMARKS
JACKSON        MOCLDY    19  16  86 N8        29.37S WCI   9
CODY           FAIR      16  15  96 S5        29.39F WCI   9
GREYBULL       FAIR      13  10  88 W6        29.40F FOG     WCI   4
WORLAND        FAIR      28  25  88 SE5       29.38F WCI  23
SHERIDAN       CLOUDY    32  28  85 SW12      29.39F WCI  23
BUFFALO        CLOUDY    33  28  81 W6        29.39F WCI  28
GILLETTE       CLOUDY    32  32 100 W8        29.39F WCI  25
HULETT         LGT SNOW  32  32 100 MISG      29.38F
NEWCASTLE      LGT SNOW  32  32 100 NW5       29.39F WCI  27

$$
WYZ014>020-022>026-101>103-210400-
CENTRAL WYOMING

CITY           SKY/WX    TMP DP  RH WIND       PRES   REMARKS
BIG PINEY      FAIR       0  -2  91 CALM      29.42F
PINEDALE       FAIR      -6  -9  84 NW5       29.42F WCI -17
DUBOIS         NOT AVBL
LANDER         FAIR      21  16  81 CALM      29.38S
RIVERTON       FAIR     N/A N/A N/A CALM      29.40S
CASPER         FAIR      23  16  74 MISG      29.41S
DOUGLAS        FAIR      30  25  81 NW8       29.41F WCI  22

$$
WYZ021-027>030-104>119-210400-
SOUTHERN WYOMING

CITY           SKY/WX    TMP DP  RH WIND       PRES   REMARKS
EVANSTON       CLOUDY    22  15  75 E7        29.34F WCI  13
ROCK SPRINGS   FAIR      18  13  80 SE8       29.40F WCI   8
RAWLINS        FAIR      21  15  78 SW14      29.45S WCI   8
LARAMIE        FAIR      22  11  62 W3        29.42S
CHEYENNE       FAIR      28  17  63 NW6       29.41S WCI  22
TORRINGTON     MOCLDY    34  31  88 W5        29.40F WCI  30

$$




USA.gov is the U.S. government's official web portal to all federal, state and local government web resources and services.